Time,TemperatureF,DewpointF,PressureIn,WindDirection,WindDirectionDegrees,WindSpeedMPH,WindSpeedGustMPH,Humidity,HourlyPrecipIn,Conditions,Clouds,dailyrainin,SoftwareType,DateUTC
2013-01-23 00:01:00,12.4,5.4,30.23,ENE,68,0.0,3.0,73,0.00,,,0.00,WeatherCatV1.13B119,2013-01-23 06:01:00,
2013-01-23 00:06:00,12.4,5.4,30.23,ENE,68,0.0,1.0,73,0.00,,,0.00,WeatherCatV1.13B119,2013-01-23 06:06:00,
2013-01-23 00:11:00,12.4,5.4,30.23,ENE,68,1.0,2.0,73,0.00,,,0.00,WeatherCatV1.13B119,2013-01-23 06:11:00,
2013-01-23 00:16:00,12.4,5.4,30.22,ENE,68,2.0,2.0,73,0.00,,,0.00,WeatherCatV1.13B119,2013-01-23 06:16:00,
2013-01-23 00:22:00,12.4,5.4,30.22,ENE,68,0.0,3.0,73,0.00,,,0.00,WeatherCatV1.13B119,2013-01-23 06:22:00,
2013-01-23 00:27:00,12.6,5.6,30.22,ENE,68,1.0,2.0,73,0.00,,,0.00,WeatherCatV1.13B119,2013-01-23 06:27:00,
2013-01-23 00:32:00,12.6,5.6,30.22,ENE,68,0.0,2.0,73,0.00,,,0.00,WeatherCatV1.13B119,2013-01-23 06:32:00,
2013-01-23 00:37:00,12.6,5.3,30.22,ENE,68,1.0,3.0,72,0.00,,,0.00,WeatherCatV1.13B119,2013-01-23 06:37:00,
2013-01-23 00:42:00,12.4,5.1,30.22,ENE,68,0.0,3.0,72,0.00,,,0.00,WeatherCatV1.13B119,2013-01-23 06:42:00,
2013-01-23 00:47:00,12.4,5.1,30.22,ENE,68,0.0,1.0,72,0.00,,,0.00,WeatherCatV1.13B119,2013-01-23 06:47:00,
2013-01-23 00:52:00,12.4,5.1,30.22,ENE,68,0.0,2.0,72,0.00,,,0.00,WeatherCatV1.13B119,2013-01-23 06:52:00,
2013-01-23 00:57:00,12.4,5.1,30.22,ENE,68,0.0,1.0,72,0.00,,,0.00,WeatherCatV1.13B119,2013-01-23 06:57:00,
2013-01-23 01:02:00,12.3,5.0,30.21,ENE,68,0.0,2.0,72,0.00,,,0.00,WeatherCatV1.13B119,2013-01-23 07:02:00,
2013-01-23 01:07:00,12.3,5.0,30.21,ENE,68,0.0,2.0,72,0.00,,,0.00,WeatherCatV1.13B119,2013-01-23 07:07:00,
2013-01-23 01:12:00,12.1,5.1,30.21,ENE,68,0.0,0.0,73,0.00,,,0.00,WeatherCatV1.13B119,2013-01-23 07:12:00,
2013-01-23 01:17:00,12.1,4.8,30.20,ENE,68,1.0,2.0,72,0.00,,,0.00,WeatherCatV1.13B119,2013-01-23 07:17:00,
2013-01-23 01:22:00,12.1,5.1,30.20,ENE,68,0.0,1.0,73,0.00,,,0.00,WeatherCatV1.13B119,2013-01-23 07:22:00,
2013-01-23 01:27:00,11.9,4.9,30.20,ENE,68,0.0,0.0,73,0.00,,,0.00,WeatherCatV1.13B119,2013-01-23 07:27:00,
2013-01-23 01:32:00,11.9,4.9,30.20,ENE,68,0.0,0.0,73,0.00,,,0.00,WeatherCatV1.13B119,2013-01-23 07:32:00,
2013-01-23 01:37:00,11.9,4.9,30.20,ENE,68,0.0,0.0,73,0.00,,,0.00,WeatherCatV1.13B119,2013-01-23 07:37:00,
2013-01-23 01:42:00,11.7,4.7,30.20,ENE,68,0.0,1.0,73,0.00,,,0.00,WeatherCatV1.13B119,2013-01-23 07:42:00,
2013-01-23 01:47:00,11.7,4.7,30.19,ENE,68,0.0,0.0,73,0.00,,,0.00,WeatherCatV1.13B119,2013-01-23 07:47:00,
2013-01-23 01:52:00,11.7,4.7,30.19,ENE,68,0.0,0.0,73,0.00,,,0.00,WeatherCatV1.13B119,2013-01-23 07:52:00,
2013-01-23 01:57:00,11.7,5.0,30.19,ENE,68,0.0,0.0,74,0.00,,,0.00,WeatherCatV1.13B119,2013-01-23 07:57:00,
2013-01-23 02:02:00,11.9,5.2,30.19,ENE,68,0.0,1.0,74,0.00,,,0.00,WeatherCatV1.13B119,2013-01-23 08:02:00,
2013-01-23 02:07:00,11.9,5.2,30.19,ENE,69,0.0,3.0,74,0.00,,,0.00,WeatherCatV1.13B119,2013-01-23 08:07:00,
2013-01-23 02:12:00,12.1,5.4,30.19,ENE,69,0.0,1.0,74,0.00,,,0.00,WeatherCatV1.13B119,2013-01-23 08:12:00,
2013-01-23 02:17:00,12.1,5.4,30.19,ENE,69,0.0,0.0,74,0.00,,,0.00,WeatherCatV1.13B119,2013-01-23 08:17:00,
2013-01-23 02:22:00,12.3,5.6,30.19,ENE,69,0.0,0.0,74,0.00,,,0.00,WeatherCatV1.13B119,2013-01-23 08:22:00,
2013-01-23 02:27:00,12.3,5.6,30.19,ENE,69,0.0,0.0,74,0.00,,,0.00,WeatherCatV1.13B119,2013-01-23 08:27:00,
2013-01-23 02:32:00,12.4,5.7,30.19,ENE,69,0.0,0.0,74,0.00,,,0.00,WeatherCatV1.13B119,2013-01-23 08:32:00,
2013-01-23 02:37:00,12.4,5.7,30.19,ENE,69,0.0,1.0,74,0.00,,,0.00,WeatherCatV1.13B119,2013-01-23 08:37:00,
2013-01-23 02:42:00,12.4,5.7,30.19,ENE,69,0.0,0.0,74,0.00,,,0.00,WeatherCatV1.13B119,2013-01-23 08:42:00,
2013-01-23 02:47:00,12.6,5.9,30.19,ENE,69,0.0,1.0,74,0.00,,,0.00,WeatherCatV1.13B119,2013-01-23 08:47:00,
2013-01-23 02:52:00,12.4,5.7,30.19,ENE,69,0.0,2.0,74,0.00,,,0.00,WeatherCatV1.13B119,2013-01-23 08:52:00,
2013-01-23 02:57:00,12.4,5.7,30.19,ENE,76,0.0,3.0,74,0.00,,,0.00,WeatherCatV1.13B119,2013-01-23 08:57:00,
2013-01-23 03:02:00,12.6,5.9,30.18,East,82,3.0,3.0,74,0.00,,,0.00,WeatherCatV1.13B119,2013-01-23 09:02:00,
2013-01-23 03:07:00,12.8,6.1,30.18,SSE,148,1.0,5.0,74,0.00,,,0.00,WeatherCatV1.13B119,2013-01-23 09:07:00,
2013-01-23 03:12:00,12.9,6.2,30.18,SSE,164,0.0,2.0,74,0.00,,,0.00,WeatherCatV1.13B119,2013-01-23 09:12:00,
2013-01-23 03:17:00,12.9,6.2,30.17,SSE,164,0.0,0.0,74,0.00,,,0.00,WeatherCatV1.13B119,2013-01-23 09:17:00,
2013-01-23 03:22:00,12.9,6.2,30.17,SSE,164,0.0,0.0,74,0.00,,,0.00,WeatherCatV1.13B119,2013-01-23 09:22:00,
2013-01-23 03:27:00,12.9,6.2,30.17,SSE,164,0.0,1.0,74,0.00,,,0.00,WeatherCatV1.13B119,2013-01-23 09:27:00,
2013-01-23 03:32:00,12.8,6.1,30.17,SSE,165,0.0,1.0,74,0.00,,,0.00,WeatherCatV1.13B119,2013-01-23 09:32:00,
2013-01-23 03:37:00,12.8,6.1,30.17,SSE,164,0.0,0.0,74,0.00,,,0.00,WeatherCatV1.13B119,2013-01-23 09:37:00,
2013-01-23 03:42:00,12.6,5.9,30.17,SSE,164,0.0,0.0,74,0.00,,,0.00,WeatherCatV1.13B119,2013-01-23 09:42:00,
2013-01-23 03:47:00,12.6,5.9,30.17,SSE,164,0.0,1.0,74,0.00,,,0.00,WeatherCatV1.13B119,2013-01-23 09:47:00,
2013-01-23 03:52:00,12.6,5.9,30.17,SSE,164,0.0,2.0,74,0.00,,,0.00,WeatherCatV1.13B119,2013-01-23 09:52:00,
2013-01-23 03:57:00,12.6,5.9,30.17,SSE,165,0.0,3.0,74,0.00,,,0.00,WeatherCatV1.13B119,2013-01-23 09:57:00,
2013-01-23 04:02:00,12.6,5.9,30.17,SSE,165,0.0,3.0,74,0.00,,,0.00,WeatherCatV1.13B119,2013-01-23 10:02:00,
2013-01-23 04:07:00,12.8,6.1,30.17,SSE,165,0.0,1.0,74,0.00,,,0.00,WeatherCatV1.13B119,2013-01-23 10:07:00,
2013-01-23 04:12:00,12.9,6.2,30.17,SSE,165,0.0,1.0,74,0.00,,,0.00,WeatherCatV1.13B119,2013-01-23 10:12:00,
2013-01-23 04:17:00,12.9,6.2,30.16,SSE,165,0.0,0.0,74,0.00,,,0.00,WeatherCatV1.13B119,2013-01-23 10:17:00,
2013-01-23 04:22:00,12.9,6.2,30.16,SSE,165,0.0,1.0,74,0.00,,,0.00,WeatherCatV1.13B119,2013-01-23 10:22:00,
2013-01-23 04:27:00,12.9,6.2,30.16,SSE,165,0.0,2.0,74,0.00,,,0.00,WeatherCatV1.13B119,2013-01-23 10:27:00,
2013-01-23 04:32:00,12.9,6.2,30.16,SSE,165,0.0,1.0,74,0.00,,,0.00,WeatherCatV1.13B119,2013-01-23 10:32:00,
2013-01-23 04:37:00,12.9,6.2,30.16,SSE,165,0.0,0.0,74,0.00,,,0.00,WeatherCatV1.13B119,2013-01-23 10:37:00,
2013-01-23 04:42:00,13.1,6.4,30.16,SSE,165,0.0,0.0,74,0.00,,,0.00,WeatherCatV1.13B119,2013-01-23 10:42:00,
2013-01-23 04:47:00,13.1,6.4,30.16,SSE,165,2.0,2.0,74,0.00,,,0.00,WeatherCatV1.13B119,2013-01-23 10:47:00,
2013-01-23 04:52:00,12.9,6.2,30.16,SSE,165,1.0,1.0,74,0.00,,,0.00,WeatherCatV1.13B119,2013-01-23 10:52:00,
2013-01-23 04:57:00,12.9,6.2,30.16,SSE,165,0.0,1.0,74,0.00,,,0.00,WeatherCatV1.13B119,2013-01-23 10:57:00,
2013-01-23 05:02:00,13.1,6.4,30.15,SSE,165,0.0,0.0,74,0.00,,,0.00,WeatherCatV1.13B119,2013-01-23 11:02:00,
2013-01-23 05:07:00,13.3,6.6,30.15,SSE,165,0.0,1.0,74,0.00,,,0.00,WeatherCatV1.13B119,2013-01-23 11:07:00,
2013-01-23 05:12:00,13.5,6.8,30.15,SSE,165,3.0,5.0,74,0.00,,,0.00,WeatherCatV1.13B119,2013-01-23 11:12:00,
2013-01-23 05:17:00,13.6,6.9,30.14,SSE,167,2.0,5.0,74,0.00,,,0.00,WeatherCatV1.13B119,2013-01-23 11:17:00,
2013-01-23 05:22:00,13.8,7.1,30.14,SSE,167,0.0,1.0,74,0.00,,,0.00,WeatherCatV1.13B119,2013-01-23 11:22:00,
2013-01-23 05:27:00,14.0,7.0,30.14,SSE,167,0.0,2.0,73,0.00,,,0.00,WeatherCatV1.13B119,2013-01-23 11:27:00,
2013-01-23 05:32:00,14.0,7.0,30.13,SSE,167,0.0,0.0,73,0.00,,,0.00,WeatherCatV1.13B119,2013-01-23 11:32:00,
2013-01-23 05:37:00,14.1,7.1,30.13,SSE,167,0.0,0.0,73,0.00,,,0.00,WeatherCatV1.13B119,2013-01-23 11:37:00,
2013-01-23 05:42:00,14.1,7.1,30.13,SSE,167,0.0,0.0,73,0.00,,,0.00,WeatherCatV1.13B119,2013-01-23 11:42:00,
2013-01-23 05:47:00,14.1,6.8,30.13,SSE,167,0.0,0.0,72,0.00,,,0.00,WeatherCatV1.13B119,2013-01-23 11:47:00,
2013-01-23 05:52:00,14.3,7.0,30.13,SSE,167,0.0,0.0,72,0.00,,,0.00,WeatherCatV1.13B119,2013-01-23 11:52:00,
2013-01-23 05:57:00,14.3,7.0,30.13,SSE,167,0.0,0.0,72,0.00,,,0.00,WeatherCatV1.13B119,2013-01-23 11:57:00,
2013-01-23 06:02:00,14.3,7.0,30.14,SSE,167,0.0,0.0,72,0.00,,,0.00,WeatherCatV1.13B119,2013-01-23 12:02:00,
2013-01-23 06:07:00,14.1,6.5,30.14,SSE,167,0.0,0.0,71,0.00,,,0.00,WeatherCatV1.13B119,2013-01-23 12:07:00,
2013-01-23 06:12:00,13.8,6.2,30.14,SSE,167,0.0,0.0,71,0.00,,,0.00,WeatherCatV1.13B119,2013-01-23 12:12:00,
2013-01-23 06:17:00,13.6,6.3,30.14,SSE,167,0.0,0.0,72,0.00,,,0.00,WeatherCatV1.13B119,2013-01-23 12:17:00,
2013-01-23 06:22:00,13.6,6.3,30.14,SSE,167,0.0,0.0,72,0.00,,,0.00,WeatherCatV1.13B119,2013-01-23 12:22:00,
2013-01-23 06:27:00,13.6,6.3,30.14,SSE,167,0.0,0.0,72,0.00,,,0.00,WeatherCatV1.13B119,2013-01-23 12:27:00,
2013-01-23 06:32:00,13.8,6.8,30.15,SSE,167,0.0,1.0,73,0.00,,,0.00,WeatherCatV1.13B119,2013-01-23 12:32:00,
2013-01-23 06:37:00,13.8,6.8,30.15,SSE,167,0.0,0.0,73,0.00,,,0.00,WeatherCatV1.13B119,2013-01-23 12:37:00,
2013-01-23 06:42:00,14.0,6.7,30.15,SSE,167,0.0,0.0,72,0.00,,,0.00,WeatherCatV1.13B119,2013-01-23 12:42:00,
2013-01-23 06:47:00,14.0,6.7,30.16,SSE,167,0.0,0.0,72,0.00,,,0.00,WeatherCatV1.13B119,2013-01-23 12:47:00,
2013-01-23 06:52:00,13.8,6.5,30.16,SSE,167,0.0,0.0,72,0.00,,,0.00,WeatherCatV1.13B119,2013-01-23 12:52:00,
2013-01-23 06:57:00,13.6,6.3,30.16,SSE,167,0.0,0.0,72,0.00,,,0.00,WeatherCatV1.13B119,2013-01-23 12:57:00,
2013-01-23 07:02:00,13.5,6.5,30.16,SSE,167,0.0,0.0,73,0.00,,,0.00,WeatherCatV1.13B119,2013-01-23 13:02:00,
2013-01-23 07:07:00,13.5,6.5,30.16,SSE,167,0.0,0.0,73,0.00,,,0.00,WeatherCatV1.13B119,2013-01-23 13:07:00,
2013-01-23 07:12:00,13.5,6.5,30.16,SSE,167,0.0,0.0,73,0.00,,,0.00,WeatherCatV1.13B119,2013-01-23 13:12:00,
2013-01-23 07:17:00,13.5,6.5,30.16,SSE,167,0.0,0.0,73,0.00,,,0.00,WeatherCatV1.13B119,2013-01-23 13:17:00,
2013-01-23 07:22:00,13.5,6.2,30.16,SSE,167,0.0,0.0,72,0.00,,,0.00,WeatherCatV1.13B119,2013-01-23 13:22:00,
2013-01-23 07:27:00,13.6,6.3,30.16,SSE,167,0.0,0.0,72,0.00,,,0.00,WeatherCatV1.13B119,2013-01-23 13:27:00,
2013-01-23 07:32:00,13.8,6.5,30.16,SSE,167,0.0,0.0,72,0.00,,,0.00,WeatherCatV1.13B119,2013-01-23 13:32:00,
2013-01-23 07:37:00,14.0,6.7,30.16,SSE,167,0.0,0.0,72,0.00,,,0.00,WeatherCatV1.13B119,2013-01-23 13:37:00,
2013-01-23 07:42:00,14.0,6.7,30.16,SSE,167,0.0,0.0,72,0.00,,,0.00,WeatherCatV1.13B119,2013-01-23 13:42:00,
2013-01-23 07:47:00,14.1,6.8,30.16,SSE,167,0.0,0.0,72,0.00,,,0.00,WeatherCatV1.13B119,2013-01-23 13:47:00,
2013-01-23 07:52:00,14.3,6.6,30.16,SSE,167,0.0,0.0,71,0.00,,,0.00,WeatherCatV1.13B119,2013-01-23 13:52:00,
2013-01-23 07:57:00,14.3,6.6,30.16,SSE,167,0.0,0.0,71,0.00,,,0.00,WeatherCatV1.13B119,2013-01-23 13:57:00,
2013-01-23 08:02:00,14.1,6.8,30.16,SSE,167,0.0,0.0,72,0.00,,,0.00,WeatherCatV1.13B119,2013-01-23 14:02:00,
2013-01-23 08:07:00,14.1,6.8,30.16,SSE,167,0.0,0.0,72,0.00,,,0.00,WeatherCatV1.13B119,2013-01-23 14:07:00,
2013-01-23 08:12:00,14.0,6.7,30.16,SSE,167,0.0,0.0,72,0.00,,,0.00,WeatherCatV1.13B119,2013-01-23 14:12:00,
2013-01-23 08:17:00,14.0,6.7,30.16,SSE,167,0.0,0.0,72,0.00,,,0.00,WeatherCatV1.13B119,2013-01-23 14:17:00,
2013-01-23 08:22:00,14.1,6.8,30.16,SSE,167,0.0,0.0,72,0.00,,,0.00,WeatherCatV1.13B119,2013-01-23 14:22:00,
2013-01-23 08:27:00,14.3,7.0,30.16,SSE,167,0.0,0.0,72,0.00,,,0.00,WeatherCatV1.13B119,2013-01-23 14:27:00,
2013-01-23 08:32:00,14.6,7.2,30.16,SSE,167,0.0,0.0,72,0.00,,,0.00,WeatherCatV1.13B119,2013-01-23 14:32:00,
2013-01-23 08:37:00,14.9,7.5,30.16,SSE,167,0.0,0.0,72,0.00,,,0.00,WeatherCatV1.13B119,2013-01-23 14:37:00,
2013-01-23 08:42:00,15.4,8.0,30.16,SSE,167,0.0,0.0,72,0.00,,,0.00,WeatherCatV1.13B119,2013-01-23 14:42:00,
2013-01-23 08:47:00,15.7,8.0,30.17,SSE,167,0.0,0.0,71,0.00,,,0.00,WeatherCatV1.13B119,2013-01-23 14:47:00,
2013-01-23 08:52:00,16.1,8.4,30.17,SSE,167,0.0,0.0,71,0.00,,,0.00,WeatherCatV1.13B119,2013-01-23 14:52:00,
2013-01-23 08:57:00,16.2,8.5,30.17,SSE,167,0.0,1.0,71,0.00,,,0.00,WeatherCatV1.13B119,2013-01-23 14:57:00,
2013-01-23 09:02:00,16.5,8.8,30.17,SSE,167,0.0,1.0,71,0.00,,,0.00,WeatherCatV1.13B119,2013-01-23 15:02:00,
2013-01-23 09:07:00,16.9,8.8,30.17,SSE,167,0.0,2.0,70,0.00,,,0.00,WeatherCatV1.13B119,2013-01-23 15:07:00,
2013-01-23 09:12:00,17.2,9.1,30.17,SSE,167,0.0,0.0,70,0.00,,,0.00,WeatherCatV1.13B119,2013-01-23 15:12:00,
2013-01-23 09:17:00,17.5,9.4,30.18,SSE,167,1.0,1.0,70,0.00,,,0.00,WeatherCatV1.13B119,2013-01-23 15:17:00,
2013-01-23 09:22:00,17.8,9.4,30.18,SSE,167,2.0,2.0,69,0.00,,,0.00,WeatherCatV1.13B119,2013-01-23 15:22:00,
2013-01-23 09:27:00,18.0,9.6,30.18,SSE,167,0.0,2.0,69,0.00,,,0.00,WeatherCatV1.13B119,2013-01-23 15:27:00,
2013-01-23 09:32:00,18.1,9.7,30.18,SSE,167,1.0,2.0,69,0.00,,,0.00,WeatherCatV1.13B119,2013-01-23 15:32:00,
2013-01-23 09:37:00,18.3,9.9,30.18,SSE,167,1.0,3.0,69,0.00,,,0.00,WeatherCatV1.13B119,2013-01-23 15:37:00,
2013-01-23 09:42:00,18.4,10.3,30.18,SSE,167,0.0,0.0,70,0.00,,,0.00,WeatherCatV1.13B119,2013-01-23 15:42:00,
2013-01-23 09:47:00,18.8,10.3,30.20,SSE,167,0.0,0.0,69,0.00,,,0.00,WeatherCatV1.13B119,2013-01-23 15:47:00,
2013-01-23 09:52:00,19.2,11.0,30.20,SSE,167,0.0,2.0,70,0.00,,,0.00,WeatherCatV1.13B119,2013-01-23 15:52:00,
2013-01-23 09:57:00,19.7,11.2,30.20,SSE,167,0.0,1.0,69,0.00,,,0.00,WeatherCatV1.13B119,2013-01-23 15:57:00,
2013-01-23 10:02:00,20.2,11.7,30.20,SSE,167,1.0,1.0,69,0.00,,,0.00,WeatherCatV1.13B119,2013-01-23 16:02:00,
2013-01-23 10:07:00,20.6,12.1,30.20,SSE,167,1.0,1.0,69,0.00,,,0.00,WeatherCatV1.13B119,2013-01-23 16:07:00,
2013-01-23 10:12:00,21.1,12.5,30.20,SSE,167,0.0,0.0,69,0.00,,,0.00,WeatherCatV1.13B119,2013-01-23 16:12:00,
2013-01-23 10:17:00,21.6,13.0,30.20,SSE,167,0.0,0.0,69,0.00,,,0.00,WeatherCatV1.13B119,2013-01-23 16:17:00,
2013-01-23 10:22:00,22.2,13.6,30.20,SSE,167,2.0,3.0,69,0.00,,,0.00,WeatherCatV1.13B119,2013-01-23 16:22:00,
2013-01-23 10:27:00,23.0,14.0,30.20,SSE,167,3.0,6.0,68,0.00,,,0.00,WeatherCatV1.13B119,2013-01-23 16:27:00,
2013-01-23 10:32:00,23.6,13.9,30.21,NNW,348,4.0,6.0,66,0.00,,,0.00,WeatherCatV1.13B119,2013-01-23 16:32:00,
2013-01-23 10:37:00,24.2,14.2,30.21,NW,315,2.0,10.0,65,0.00,,,0.00,WeatherCatV1.13B119,2013-01-23 16:37:00,
2013-01-23 10:42:00,24.7,13.9,30.21,North,355,2.0,7.0,63,0.00,,,0.00,WeatherCatV1.13B119,2013-01-23 16:42:00,
2013-01-23 10:47:00,24.8,13.7,30.21,NNE,15,3.0,7.0,62,0.00,,,0.00,WeatherCatV1.13B119,2013-01-23 16:47:00,
2013-01-23 10:52:00,25.1,13.9,30.21,NNW,340,4.0,10.0,62,0.00,,,0.00,WeatherCatV1.13B119,2013-01-23 16:52:00,
2013-01-23 10:57:00,25.4,13.9,30.21,NNW,340,1.0,3.0,61,0.00,,,0.00,WeatherCatV1.13B119,2013-01-23 16:57:00,
2013-01-23 11:02:00,25.6,14.0,30.21,NNW,346,7.0,8.0,61,0.00,,,0.00,WeatherCatV1.13B119,2013-01-23 17:02:00,
2013-01-23 11:07:00,25.8,14.2,30.21,NNW,327,6.0,6.0,61,0.00,,,0.00,WeatherCatV1.13B119,2013-01-23 17:07:00,
2013-01-23 11:12:00,25.8,14.2,30.21,NNW,340,10.0,14.0,61,0.00,,,0.00,WeatherCatV1.13B119,2013-01-23 17:12:00,
2013-01-23 11:17:00,25.8,13.9,30.21,NNE,16,4.0,14.0,60,0.00,,,0.00,WeatherCatV1.13B119,2013-01-23 17:17:00,
2013-01-23 11:22:00,26.0,14.0,30.21,NNW,332,2.0,7.0,60,0.00,,,0.00,WeatherCatV1.13B119,2013-01-23 17:22:00,
2013-01-23 11:27:00,26.1,14.5,30.21,NW,319,4.0,9.0,61,0.00,,,0.00,WeatherCatV1.13B119,2013-01-23 17:27:00,
2013-01-23 11:32:00,26.3,14.3,30.21,NNW,334,3.0,9.0,60,0.00,,,0.00,WeatherCatV1.13B119,2013-01-23 17:32:00,
2013-01-23 11:37:00,26.4,14.4,30.21,NNW,345,3.0,10.0,60,0.00,,,0.00,WeatherCatV1.13B119,2013-01-23 17:37:00,
2013-01-23 11:42:00,26.7,15.1,30.21,North,0,1.0,9.0,61,0.00,,,0.00,WeatherCatV1.13B119,2013-01-23 17:42:00,
2013-01-23 11:47:00,26.7,14.7,30.21,North,355,6.0,9.0,60,0.00,,,0.00,WeatherCatV1.13B119,2013-01-23 17:47:00,
2013-01-23 11:52:00,26.9,14.9,30.21,NNW,342,3.0,7.0,60,0.00,,,0.00,WeatherCatV1.13B119,2013-01-23 17:52:00,
2013-01-23 11:57:00,27.0,15.0,30.21,NNW,335,4.0,6.0,60,0.00,,,0.00,WeatherCatV1.13B119,2013-01-23 17:57:00,
2013-01-23 12:02:00,27.2,14.8,30.21,NNW,328,2.0,10.0,59,0.00,,,0.00,WeatherCatV1.13B119,2013-01-23 18:02:00,
2013-01-23 12:07:00,27.5,15.1,30.21,NNW,327,5.0,9.0,59,0.00,,,0.00,WeatherCatV1.13B119,2013-01-23 18:07:00,
2013-01-23 12:12:00,27.5,15.1,30.21,NNW,331,9.0,9.0,59,0.00,,,0.00,WeatherCatV1.13B119,2013-01-23 18:12:00,
2013-01-23 12:17:00,27.6,15.2,30.21,NNW,343,10.0,10.0,59,0.00,,,0.00,WeatherCatV1.13B119,2013-01-23 18:17:00,
2013-01-23 12:22:00,27.8,15.4,30.21,NNW,348,5.0,12.0,59,0.00,,,0.00,WeatherCatV1.13B119,2013-01-23 18:22:00,
2013-01-23 12:27:00,28.1,15.3,30.21,North,355,8.0,11.0,58,0.00,,,0.00,WeatherCatV1.13B119,2013-01-23 18:27:00,
2013-01-23 12:32:00,28.4,15.5,30.21,NNW,329,7.0,11.0,58,0.00,,,0.00,WeatherCatV1.13B119,2013-01-23 18:32:00,
2013-01-23 12:37:00,28.7,15.4,30.21,NW,323,5.0,13.0,57,0.00,,,0.00,WeatherCatV1.13B119,2013-01-23 18:37:00,
2013-01-23 12:42:00,28.7,15.0,30.21,NW,311,3.0,13.0,56,0.00,,,0.00,WeatherCatV1.13B119,2013-01-23 18:42:00,
2013-01-23 12:47:00,28.7,15.0,30.21,NNW,327,4.0,9.0,56,0.00,,,0.00,WeatherCatV1.13B119,2013-01-23 18:47:00,
2013-01-23 12:52:00,28.5,14.8,30.21,NNW,331,9.0,15.0,56,0.00,,,0.00,WeatherCatV1.13B119,2013-01-23 18:52:00,
2013-01-23 12:57:00,28.5,14.8,30.21,NW,321,7.0,10.0,56,0.00,,,0.00,WeatherCatV1.13B119,2013-01-23 18:57:00,
2013-01-23 13:02:00,28.7,15.0,30.22,North,350,6.0,14.0,56,0.00,,,0.00,WeatherCatV1.13B119,2013-01-23 19:02:00,
2013-01-23 13:07:00,28.8,14.7,30.22,NNW,345,7.0,12.0,55,0.00,,,0.00,WeatherCatV1.13B119,2013-01-23 19:07:00,
2013-01-23 13:12:00,29.0,15.3,30.22,North,5,6.0,13.0,56,0.00,,,0.00,WeatherCatV1.13B119,2013-01-23 19:12:00,
2013-01-23 13:17:00,29.0,14.5,30.22,NNE,30,7.0,12.0,54,0.00,,,0.00,WeatherCatV1.13B119,2013-01-23 19:17:00,
2013-01-23 13:22:00,29.1,15.0,30.22,NNW,334,13.0,13.0,55,0.00,,,0.00,WeatherCatV1.13B119,2013-01-23 19:22:00,
2013-01-23 13:27:00,29.3,15.2,30.22,North,0,9.0,12.0,55,0.00,,,0.00,WeatherCatV1.13B119,2013-01-23 19:27:00,
2013-01-23 13:32:00,29.4,16.1,30.22,NW,321,5.0,11.0,57,0.00,,,0.00,WeatherCatV1.13B119,2013-01-23 19:32:00,
2013-01-23 13:37:00,29.8,16.0,30.22,NNW,344,8.0,9.0,56,0.00,,,0.00,WeatherCatV1.13B119,2013-01-23 19:37:00,
2013-01-23 13:42:00,29.8,15.2,30.22,NW,309,6.0,10.0,54,0.00,,,0.00,WeatherCatV1.13B119,2013-01-23 19:42:00,
2013-01-23 13:47:00,29.8,15.2,30.22,West,267,4.0,7.0,54,0.00,,,0.00,WeatherCatV1.13B119,2013-01-23 19:47:00,
2013-01-23 13:52:00,29.8,15.6,30.22,NW,319,7.0,10.0,55,0.00,,,0.00,WeatherCatV1.13B119,2013-01-23 19:52:00,
2013-01-23 13:57:00,29.8,15.2,30.22,WNW,297,1.0,11.0,54,0.00,,,0.00,WeatherCatV1.13B119,2013-01-23 19:57:00,
2013-01-23 14:02:00,29.8,15.2,30.22,NW,312,7.0,9.0,54,0.00,,,0.00,WeatherCatV1.13B119,2013-01-23 20:02:00,
2013-01-23 14:07:00,30.0,15.4,30.22,NNW,336,12.0,13.0,54,0.00,,,0.00,WeatherCatV1.13B119,2013-01-23 20:07:00,
2013-01-23 14:12:00,29.8,15.6,30.22,NNW,341,10.0,12.0,55,0.00,,,0.00,WeatherCatV1.13B119,2013-01-23 20:12:00,
2013-01-23 14:17:00,29.7,15.5,30.22,NNW,338,3.0,7.0,55,0.00,,,0.00,WeatherCatV1.13B119,2013-01-23 20:17:00,
2013-01-23 14:22:00,29.8,15.6,30.22,NNW,338,2.0,12.0,55,0.00,,,0.00,WeatherCatV1.13B119,2013-01-23 20:22:00,
2013-01-23 14:27:00,29.8,15.2,30.22,NNW,344,5.0,10.0,54,0.00,,,0.00,WeatherCatV1.13B119,2013-01-23 20:27:00,
2013-01-23 14:32:00,29.8,15.2,30.22,NW,314,1.0,10.0,54,0.00,,,0.00,WeatherCatV1.13B119,2013-01-23 20:32:00,
2013-01-23 14:37:00,29.8,15.2,30.22,NW,318,7.0,7.0,54,0.00,,,0.00,WeatherCatV1.13B119,2013-01-23 20:37:00,
2013-01-23 14:42:00,29.7,15.5,30.22,NNW,327,2.0,7.0,55,0.00,,,0.00,WeatherCatV1.13B119,2013-01-23 20:42:00,
2013-01-23 14:47:00,29.7,15.5,30.23,WNW,296,3.0,7.0,55,0.00,,,0.00,WeatherCatV1.13B119,2013-01-23 20:47:00,
2013-01-23 14:52:00,29.7,15.5,30.23,NW,316,3.0,11.0,55,0.00,,,0.00,WeatherCatV1.13B119,2013-01-23 20:52:00,
2013-01-23 14:57:00,29.7,15.1,30.23,North,0,5.0,12.0,54,0.00,,,0.00,WeatherCatV1.13B119,2013-01-23 20:57:00,
2013-01-23 15:02:00,29.5,15.3,30.24,NNW,342,7.0,7.0,55,0.00,,,0.00,WeatherCatV1.13B119,2013-01-23 21:02:00,
2013-01-23 15:07:00,29.5,15.3,30.24,NNW,340,6.0,12.0,55,0.00,,,0.00,WeatherCatV1.13B119,2013-01-23 21:07:00,
2013-01-23 15:12:00,29.4,15.7,30.24,NNW,332,2.0,11.0,56,0.00,,,0.00,WeatherCatV1.13B119,2013-01-23 21:12:00,
2013-01-23 15:17:00,29.4,15.7,30.24,NNW,330,6.0,9.0,56,0.00,,,0.00,WeatherCatV1.13B119,2013-01-23 21:17:00,
2013-01-23 15:22:00,29.3,15.6,30.24,NNW,330,3.0,10.0,56,0.00,,,0.00,WeatherCatV1.13B119,2013-01-23 21:22:00,
2013-01-23 15:27:00,29.3,15.6,30.24,North,355,4.0,12.0,56,0.00,,,0.00,WeatherCatV1.13B119,2013-01-23 21:27:00,
2013-01-23 15:32:00,29.1,15.4,30.24,NNW,327,3.0,12.0,56,0.00,,,0.00,WeatherCatV1.13B119,2013-01-23 21:32:00,
2013-01-23 15:37:00,29.1,15.4,30.24,North,0,5.0,11.0,56,0.00,,,0.00,WeatherCatV1.13B119,2013-01-23 21:37:00,
2013-01-23 15:42:00,29.1,15.4,30.24,NNW,345,6.0,9.0,56,0.00,,,0.00,WeatherCatV1.13B119,2013-01-23 21:42:00,
2013-01-23 15:47:00,29.1,15.8,30.25,NNW,346,5.0,10.0,57,0.00,,,0.00,WeatherCatV1.13B119,2013-01-23 21:47:00,
2013-01-23 15:52:00,29.3,15.6,30.25,NNW,333,9.0,12.0,56,0.00,,,0.00,WeatherCatV1.13B119,2013-01-23 21:52:00,
2013-01-23 15:57:00,29.1,15.4,30.25,NNW,347,7.0,14.0,56,0.00,,,0.00,WeatherCatV1.13B119,2013-01-23 21:57:00,
2013-01-23 16:02:00,29.0,15.3,30.25,NNW,329,12.0,13.0,56,0.00,,,0.00,WeatherCatV1.13B119,2013-01-23 22:02:00,
2013-01-23 16:07:00,28.8,15.5,30.25,North,11,5.0,10.0,57,0.00,,,0.00,WeatherCatV1.13B119,2013-01-23 22:07:00,
2013-01-23 16:12:00,28.7,15.0,30.25,NNW,338,13.0,16.0,56,0.00,,,0.00,WeatherCatV1.13B119,2013-01-23 22:12:00,
2013-01-23 16:17:00,28.5,14.4,30.25,NNW,344,10.0,16.0,55,0.00,,,0.00,WeatherCatV1.13B119,2013-01-23 22:17:00,
2013-01-23 16:22:00,28.4,14.3,30.25,NW,323,8.0,8.0,55,0.00,,,0.00,WeatherCatV1.13B119,2013-01-23 22:22:00,
2013-01-23 16:27:00,28.5,14.4,30.25,NNW,346,5.0,10.0,55,0.00,,,0.00,WeatherCatV1.13B119,2013-01-23 22:27:00,
2013-01-23 16:32:00,28.2,14.1,30.27,NNW,346,4.0,14.0,55,0.00,,,0.00,WeatherCatV1.13B119,2013-01-23 22:32:00,
2013-01-23 16:37:00,27.9,13.9,30.27,North,355,9.0,15.0,55,0.00,,,0.00,WeatherCatV1.13B119,2013-01-23 22:37:00,
2013-01-23 16:42:00,27.8,13.8,30.27,NW,321,5.0,12.0,55,0.00,,,0.00,WeatherCatV1.13B119,2013-01-23 22:42:00,
2013-01-23 16:47:00,27.6,14.0,30.28,North,355,3.0,11.0,56,0.00,,,0.00,WeatherCatV1.13B119,2013-01-23 22:47:00,
2013-01-23 16:52:00,27.5,13.9,30.28,North,0,6.0,7.0,56,0.00,,,0.00,WeatherCatV1.13B119,2013-01-23 22:52:00,
2013-01-23 16:57:00,27.2,13.2,30.28,NW,325,9.0,14.0,55,0.00,,,0.00,WeatherCatV1.13B119,2013-01-23 22:57:00,
2013-01-23 17:02:00,27.0,13.0,30.27,North,350,4.0,9.0,55,0.00,,,0.00,WeatherCatV1.13B119,2013-01-23 23:02:00,
2013-01-23 17:07:00,26.9,12.5,30.27,NNW,329,5.0,9.0,54,0.00,,,0.00,WeatherCatV1.13B119,2013-01-23 23:07:00,
2013-01-23 17:12:00,26.6,11.4,30.27,NW,306,5.0,16.0,52,0.00,,,0.00,WeatherCatV1.13B119,2013-01-23 23:12:00,
2013-01-23 17:17:00,26.4,11.6,30.29,NNW,329,8.0,15.0,53,0.00,,,0.00,WeatherCatV1.13B119,2013-01-23 23:17:00,
2013-01-23 17:22:00,26.1,10.9,30.29,North,5,9.0,13.0,52,0.00,,,0.00,WeatherCatV1.13B119,2013-01-23 23:22:00,
2013-01-23 17:27:00,26.0,10.8,30.29,NW,320,5.0,15.0,52,0.00,,,0.00,WeatherCatV1.13B119,2013-01-23 23:27:00,
2013-01-23 17:32:00,25.7,11.0,30.30,NNW,344,5.0,11.0,53,0.00,,,0.00,WeatherCatV1.13B119,2013-01-23 23:32:00,
2013-01-23 17:37:00,25.6,10.4,30.30,NNW,331,9.0,14.0,52,0.00,,,0.00,WeatherCatV1.13B119,2013-01-23 23:37:00,
2013-01-23 17:42:00,25.3,10.2,30.30,NNW,348,11.0,15.0,52,0.00,,,0.00,WeatherCatV1.13B119,2013-01-23 23:42:00,
2013-01-23 17:47:00,25.0,10.3,30.31,NNW,333,7.0,18.0,53,0.00,,,0.00,WeatherCatV1.13B119,2013-01-23 23:47:00,
2013-01-23 17:52:00,24.7,10.5,30.31,NNW,341,4.0,14.0,54,0.00,,,0.00,WeatherCatV1.13B119,2013-01-23 23:52:00,
2013-01-23 17:57:00,24.4,11.0,30.31,NNW,336,6.0,13.0,56,0.00,,,0.00,WeatherCatV1.13B119,2013-01-23 23:57:00,
2013-01-23 18:02:00,24.1,11.1,30.32,NW,323,8.0,12.0,57,0.00,,,0.00,WeatherCatV1.13B119,2013-01-24 00:02:00,
2013-01-23 18:07:00,23.9,11.3,30.32,NNW,330,16.0,16.0,58,0.00,,,0.00,WeatherCatV1.13B119,2013-01-24 00:07:00,
2013-01-23 18:12:00,23.8,11.6,30.32,NNW,332,6.0,12.0,59,0.00,,,0.00,WeatherCatV1.13B119,2013-01-24 00:12:00,
2013-01-23 18:17:00,23.6,11.8,30.33,North,349,7.0,9.0,60,0.00,,,0.00,WeatherCatV1.13B119,2013-01-24 00:17:00,
2013-01-23 18:22:00,23.5,12.1,30.33,NNW,342,2.0,6.0,61,0.00,,,0.00,WeatherCatV1.13B119,2013-01-24 00:22:00,
2013-01-23 18:27:00,23.2,11.8,30.33,North,349,5.0,8.0,61,0.00,,,0.00,WeatherCatV1.13B119,2013-01-24 00:27:00,
2013-01-23 18:32:00,23.0,11.9,30.33,NNW,331,4.0,7.0,62,0.00,,,0.00,WeatherCatV1.13B119,2013-01-24 00:32:00,
2013-01-23 18:37:00,22.9,11.9,30.33,NNW,343,9.0,12.0,62,0.00,,,0.00,WeatherCatV1.13B119,2013-01-24 00:37:00,
2013-01-23 18:42:00,22.7,11.7,30.33,North,355,2.0,16.0,62,0.00,,,0.00,WeatherCatV1.13B119,2013-01-24 00:42:00,
2013-01-23 18:47:00,22.4,11.4,30.34,NNW,337,9.0,9.0,62,0.00,,,0.00,WeatherCatV1.13B119,2013-01-24 00:47:00,
2013-01-23 18:52:00,22.2,11.6,30.34,NW,315,5.0,7.0,63,0.00,,,0.00,WeatherCatV1.13B119,2013-01-24 00:52:00,
2013-01-23 18:57:00,22.1,11.5,30.34,NNW,336,4.0,11.0,63,0.00,,,0.00,WeatherCatV1.13B119,2013-01-24 00:57:00,
2013-01-23 19:02:00,21.9,11.3,30.35,North,355,5.0,10.0,63,0.00,,,0.00,WeatherCatV1.13B119,2013-01-24 01:02:00,
2013-01-23 19:07:00,21.6,10.3,30.35,NW,326,14.0,14.0,61,0.00,,,0.00,WeatherCatV1.13B119,2013-01-24 01:07:00,
2013-01-23 19:12:00,21.4,10.1,30.35,NNW,336,11.0,11.0,61,0.00,,,0.00,WeatherCatV1.13B119,2013-01-24 01:12:00,
2013-01-23 19:17:00,21.3,8.9,30.37,NNW,347,6.0,13.0,58,0.00,,,0.00,WeatherCatV1.13B119,2013-01-24 01:17:00,
2013-01-23 19:22:00,21.1,8.3,30.37,NNW,331,8.0,11.0,57,0.00,,,0.00,WeatherCatV1.13B119,2013-01-24 01:22:00,
2013-01-23 19:27:00,21.0,7.4,30.37,NNW,343,12.0,16.0,55,0.00,,,0.00,WeatherCatV1.13B119,2013-01-24 01:27:00,
2013-01-23 19:32:00,20.8,7.2,30.37,NNW,327,3.0,7.0,55,0.00,,,0.00,WeatherCatV1.13B119,2013-01-24 01:32:00,
2013-01-23 19:37:00,20.6,7.0,30.37,NNE,23,9.0,15.0,55,0.00,,,0.00,WeatherCatV1.13B119,2013-01-24 01:37:00,
2013-01-23 19:42:00,20.3,5.9,30.37,NNW,340,10.0,16.0,53,0.00,,,0.00,WeatherCatV1.13B119,2013-01-24 01:42:00,
2013-01-23 19:47:00,20.2,5.4,30.38,NNW,332,0.0,11.0,52,0.00,,,0.00,WeatherCatV1.13B119,2013-01-24 01:47:00,
2013-01-23 19:52:00,19.9,4.7,30.38,North,355,9.0,14.0,51,0.00,,,0.00,WeatherCatV1.13B119,2013-01-24 01:52:00,
2013-01-23 19:57:00,19.7,5.0,30.38,NW,325,4.0,14.0,52,0.00,,,0.00,WeatherCatV1.13B119,2013-01-24 01:57:00,
2013-01-23 20:02:00,19.5,4.4,30.38,NNW,327,13.0,16.0,51,0.00,,,0.00,WeatherCatV1.13B119,2013-01-24 02:02:00,
2013-01-23 20:07:00,19.4,3.8,30.38,North,5,12.0,12.0,50,0.00,,,0.00,WeatherCatV1.13B119,2013-01-24 02:07:00,
2013-01-23 20:12:00,19.1,3.6,30.38,NNW,329,9.0,12.0,50,0.00,,,0.00,WeatherCatV1.13B119,2013-01-24 02:12:00,
2013-01-23 20:17:00,18.8,3.3,30.39,NNW,346,11.0,13.0,50,0.00,,,0.00,WeatherCatV1.13B119,2013-01-24 02:17:00,
2013-01-23 20:22:00,18.6,3.5,30.39,NNW,331,10.0,11.0,51,0.00,,,0.00,WeatherCatV1.13B119,2013-01-24 02:22:00,
2013-01-23 20:27:00,18.4,3.8,30.39,North,5,10.0,12.0,52,0.00,,,0.00,WeatherCatV1.13B119,2013-01-24 02:27:00,
2013-01-23 20:32:00,18.1,3.1,30.40,NNW,333,11.0,16.0,51,0.00,,,0.00,WeatherCatV1.13B119,2013-01-24 02:32:00,
2013-01-23 20:37:00,18.0,3.0,30.40,NNW,327,3.0,14.0,51,0.00,,,0.00,WeatherCatV1.13B119,2013-01-24 02:37:00,
2013-01-23 20:42:00,17.8,2.8,30.40,North,0,6.0,12.0,51,0.00,,,0.00,WeatherCatV1.13B119,2013-01-24 02:42:00,
2013-01-23 20:48:00,17.7,2.7,30.41,NE,44,3.0,11.0,51,0.00,,,0.00,WeatherCatV1.13B119,2013-01-24 02:48:00,
2013-01-23 20:53:00,17.5,2.9,30.41,North,10,5.0,13.0,52,0.00,,,0.00,WeatherCatV1.13B119,2013-01-24 02:53:00,
2013-01-23 20:58:00,17.3,3.1,30.41,North,0,6.0,12.0,53,0.00,,,0.00,WeatherCatV1.13B119,2013-01-24 02:58:00,
2013-01-23 21:03:00,17.2,3.4,30.41,NNE,19,1.0,11.0,54,0.00,,,0.00,WeatherCatV1.13B119,2013-01-24 03:03:00,
2013-01-23 21:08:00,16.9,3.2,30.41,NNW,328,10.0,12.0,54,0.00,,,0.00,WeatherCatV1.13B119,2013-01-24 03:08:00,
2013-01-23 21:13:00,16.7,3.0,30.41,NNW,345,3.0,13.0,54,0.00,,,0.00,WeatherCatV1.13B119,2013-01-24 03:13:00,
2013-01-23 21:18:00,16.7,3.0,30.41,NNW,342,4.0,13.0,54,0.00,,,0.00,WeatherCatV1.13B119,2013-01-24 03:18:00,
2013-01-23 21:23:00,16.4,3.1,30.41,North,10,4.0,11.0,55,0.00,,,0.00,WeatherCatV1.13B119,2013-01-24 03:23:00,
2013-01-23 21:28:00,16.2,2.9,30.41,NW,315,11.0,11.0,55,0.00,,,0.00,WeatherCatV1.13B119,2013-01-24 03:28:00,
2013-01-23 21:33:00,16.1,2.8,30.42,NNE,23,4.0,7.0,55,0.00,,,0.00,WeatherCatV1.13B119,2013-01-24 03:33:00,
2013-01-23 21:38:00,15.9,1.8,30.42,NNE,20,4.0,12.0,53,0.00,,,0.00,WeatherCatV1.13B119,2013-01-24 03:38:00,
2013-01-23 21:43:00,15.7,0.8,30.42,NNE,21,11.0,18.0,51,0.00,,,0.00,WeatherCatV1.13B119,2013-01-24 03:43:00,
2013-01-23 21:48:00,15.6,0.3,30.42,NNW,346,9.0,13.0,50,0.00,,,0.00,WeatherCatV1.13B119,2013-01-24 03:48:00,
2013-01-23 21:53:00,15.4,0.1,30.42,North,5,4.0,14.0,50,0.00,,,0.00,WeatherCatV1.13B119,2013-01-24 03:53:00,
2013-01-23 21:58:00,15.2,-0.1,30.42,ENE,65,6.0,13.0,50,0.00,,,0.00,WeatherCatV1.13B119,2013-01-24 03:58:00,
2013-01-23 22:03:00,14.9,-0.3,30.42,NNW,347,10.0,10.0,50,0.00,,,0.00,WeatherCatV1.13B119,2013-01-24 04:03:00,
2013-01-23 22:08:00,14.9,0.1,30.42,North,350,5.0,12.0,51,0.00,,,0.00,WeatherCatV1.13B119,2013-01-24 04:08:00,
2013-01-23 22:13:00,14.8,0.4,30.42,North,5,2.0,7.0,52,0.00,,,0.00,WeatherCatV1.13B119,2013-01-24 04:13:00,
2013-01-23 22:18:00,14.6,0.2,30.44,NNW,333,4.0,12.0,52,0.00,,,0.00,WeatherCatV1.13B119,2013-01-24 04:18:00,
2013-01-23 22:23:00,14.4,0.0,30.44,North,0,6.0,11.0,52,0.00,,,0.00,WeatherCatV1.13B119,2013-01-24 04:23:00,
2013-01-23 22:28:00,14.3,-0.1,30.44,NE,42,5.0,11.0,52,0.00,,,0.00,WeatherCatV1.13B119,2013-01-24 04:28:00,
2013-01-23 22:33:00,14.1,0.2,30.45,North,355,6.0,12.0,53,0.00,,,0.00,WeatherCatV1.13B119,2013-01-24 04:33:00,
2013-01-23 22:38:00,14.0,0.1,30.45,North,9,9.0,9.0,53,0.00,,,0.00,WeatherCatV1.13B119,2013-01-24 04:38:00,
2013-01-23 22:43:00,13.8,-0.1,30.45,North,355,9.0,11.0,53,0.00,,,0.00,WeatherCatV1.13B119,2013-01-24 04:43:00,
2013-01-23 22:48:00,13.6,0.1,30.45,North,0,6.0,9.0,54,0.00,,,0.00,WeatherCatV1.13B119,2013-01-24 04:48:00,
2013-01-23 22:53:00,13.3,-0.6,30.45,NE,38,3.0,11.0,53,0.00,,,0.00,WeatherCatV1.13B119,2013-01-24 04:53:00,
2013-01-23 22:58:00,12.8,-1.5,30.45,North,351,1.0,6.0,52,0.00,,,0.00,WeatherCatV1.13B119,2013-01-24 04:58:00,
2013-01-23 23:00:00,12.6,-1.6,30.45,North,5,3.0,11.0,52,0.00,,,0.00,WeatherCatV1.13B119,2013-01-24 05:00:00,
2013-01-23 23:05:00,12.4,-2.2,30.45,NNE,26,1.0,7.0,51,0.00,,,0.00,WeatherCatV1.13B119,2013-01-24 05:05:00,
2013-01-23 23:10:00,12.1,-2.5,30.45,NNW,336,5.0,7.0,51,0.00,,,0.00,WeatherCatV1.13B119,2013-01-24 05:10:00,
2013-01-23 23:15:00,11.9,-2.7,30.47,North,11,2.0,6.0,51,0.00,,,0.00,WeatherCatV1.13B119,2013-01-24 05:15:00,
2013-01-23 23:20:00,11.7,-2.5,30.47,NNE,22,7.0,12.0,52,0.00,,,0.00,WeatherCatV1.13B119,2013-01-24 05:20:00,
2013-01-23 23:25:00,11.4,-2.8,30.47,North,10,4.0,11.0,52,0.00,,,0.00,WeatherCatV1.13B119,2013-01-24 05:25:00,
2013-01-23 23:30:00,11.2,-3.0,30.48,North,5,2.0,8.0,52,0.00,,,0.00,WeatherCatV1.13B119,2013-01-24 05:30:00,
2013-01-23 23:35:00,11.1,-3.0,30.48,NNW,345,4.0,5.0,52,0.00,,,0.00,WeatherCatV1.13B119,2013-01-24 05:35:00,
2013-01-23 23:40:00,10.9,-2.8,30.48,NNE,21,5.0,9.0,53,0.00,,,0.00,WeatherCatV1.13B119,2013-01-24 05:40:00,
2013-01-23 23:45:00,10.7,-2.6,30.48,NNW,348,4.0,7.0,54,0.00,,,0.00,WeatherCatV1.13B119,2013-01-24 05:45:00,
2013-01-23 23:50:00,10.5,-2.8,30.48,NNW,340,7.0,10.0,54,0.00,,,0.00,WeatherCatV1.13B119,2013-01-24 05:50:00,
2013-01-23 23:55:00,10.4,-2.5,30.48,North,10,4.0,9.0,55,0.00,,,0.00,WeatherCatV1.13B119,2013-01-24 05:55:00,